Meknes, Morocco

9:56 AM WEST on April 26, 2017 (GMT +0100)
Meknes

Weather History for GMFM - May, 2013

Change the Weather History Date:

Wednesday, May 8, 2013

  Actual Average (GMFF) Record (GMFF)
Temperature  
Mean Temperature 78 °F -  
Max Temperature 91 °F 77 °F 91 °F (2005)
Min Temperature 64 °F 54 °F 39 °F (2001)
Cooling Degree Days 12    
Growing Degree Days 28 (Base 50)    
Moisture  
Dew Point 45 °F    
Average Humidity 33    
Maximum Humidity 60    
Minimum Humidity 9    
Precipitation  
Precipitation 0.00 in 0.05 in - ()
Sea Level Pressure  
Sea Level Pressure 30.06 in    
Wind  
Wind Speed 6 mph ()    
Max Wind Speed 76 mph    
Max Gust Speed -    
Visibility 6.0 miles    
Events      
Averages and records for this station are not official NWS values.
T = Trace of Precipitation, MM = Missing Value Source: Averaged Metar Reports

Daily Weather History Graph

Daily Weather History Graph

Search for Another Location

Airport or City:

Trip Planner

Search our weather history database for the weather conditions in past years. The results will help you decide how hot, cold, wet, or windy it might be!

Date:

Astronomy

May. 08, 2013 Rise Set
Actual Time 6:26 AM WEST 8:11 PM WEST
Civil Twilight 5:59 AM WEST 8:38 PM WEST
Nautical Twilight 5:26 AM WEST 9:11 PM WEST
Astronomical Twilight 4:52 AM WEST 9:45 PM WEST
Moon 5:22 AM WEST (5/8) 6:58 PM WEST (5/8)
Length of Visible Light 14h 38m
Length of Day
13h 44m
Waning Crescent, 2% of the Moon is Illuminated
May 8
Waning Crescent
May 10
New
May 18
First Quarter
May 25
Full
May 31
Last Quarter

Hourly Weather History & Observations

Time (WEST) Temp. Dew Point Humidity Pressure Visibility Wind Dir Wind Speed Gust Speed Precip Events Conditions
12:00 AM 68.0 °F 50.0 °F 52% 30.12 in - SSE 3.5 mph - N/A   Clear
1:00 AM 66 °F 51 °F 48% 30.06 in 6 mi South 2.3 mph - -  
1:00 AM 66.2 °F 51.8 °F 60% 30.12 in - South 2.3 mph - N/A   Clear
2:00 AM 66.2 °F 51.8 °F 60% 30.12 in - South 2.3 mph - N/A   Clear
3:00 AM 69.8 °F 46.4 °F 43% 30.09 in - ENE 6.9 mph - N/A   Clear
4:00 AM 69 °F 47 °F 34% 30.02 in 6 mi ENE 6.9 mph - -  
4:00 AM 69.8 °F 46.4 °F 43% 30.09 in - ENE 6.9 mph - N/A   Clear
5:00 AM 69.8 °F 46.4 °F 43% 30.09 in - South 6.9 mph - N/A   Clear
6:00 AM 66.2 °F 42.8 °F 43% 30.06 in - South 4.6 mph - N/A   Clear
7:00 AM 65 °F 42 °F 31% 30.03 in 6 mi South 3.5 mph - -   Clear
7:00 AM 64.4 °F 41.0 °F 42% 30.06 in - South 3.5 mph - N/A   Clear
8:00 AM 69.8 °F 42.8 °F 38% 30.06 in - South 1.2 mph - N/A   Clear
9:00 AM 68.0 °F 42.8 °F 40% 30.06 in - South 1.2 mph - N/A   Clear
10:00 AM - 43 °F % 29.99 in 6 mi NNE 76.0 mph - -   Partly Cloudy
10:00 AM 80.6 °F 42.8 °F 26% 30.09 in - West 2.3 mph - N/A   Clear
11:00 AM 82.4 °F 41.0 °F 23% 30.09 in - NW 3.5 mph - N/A   Clear
12:00 PM 86.0 °F 35.6 °F 17% 30.09 in - NW 4.6 mph - N/A   Clear
1:00 PM 89 °F 38 °F 9% 29.95 in 6 mi WNW 5.8 mph - -   Partly Cloudy
1:00 PM 87.8 °F 39.2 °F 18% 30.06 in - WNW 5.8 mph - N/A   Clear
2:00 PM 91.4 °F 37.4 °F 15% 30.06 in - WSW 8.1 mph - N/A   Clear
3:00 PM 91.4 °F 37.4 °F 15% 30.04 in - WNW 9.2 mph - N/A   Clear
4:00 PM 89 °F 44 °F 12% 29.91 in 6 mi NW 8.1 mph - -   Scattered Clouds
4:00 PM 87.8 °F 44.6 °F 22% 30.04 in - NW 8.1 mph - N/A   Clear
5:00 PM 87.8 °F 46.4 °F 24% 30.04 in - NW 12.7 mph - N/A   Clear
6:00 PM 84.2 °F 48.2 °F 29% 30.04 in - NW 10.4 mph - N/A   Clear
7:00 PM 82 °F 48 °F 20% 29.95 in 6 mi NW 10.4 mph - -   Scattered Clouds
7:00 PM 82.4 °F 48.2 °F 30% 30.06 in - NW 10.4 mph - N/A   Clear
8:00 PM 78.8 °F 44.6 °F 30% 30.06 in - NW 6.9 mph - N/A   Clear
9:00 PM 75.2 °F 44.6 °F 34% 30.09 in - NW 4.6 mph - N/A   Clear
10:00 PM 69 °F 47 °F 35% 30.06 in 6 mi South 2.3 mph - -   Scattered Clouds
10:00 PM 69.8 °F 48.2 °F 46% 30.12 in - South 2.3 mph - N/A   Clear
11:00 PM 64.4 °F 48.2 °F 56% 30.12 in - South 2.3 mph - N/A   Clear